Preview of NWS' New Version of Forecast
This preview is not operational and should not be used for support decisions.

Regional Weather Roundup (RWR)

Issued by National Weather Service (NWS)

                            
000
ASUS45 KABQ 221110
RWRNM 
NEW MEXICO REGIONAL WEATHER ROUNDUP
NATIONAL WEATHER SERVICE ALBUQUERQUE NM
500 AM MDT MON JUL 22 2019

NOTE: "FAIR" MEANS FEW OR NO CLOUDS BELOW 12,000 FEET AGL WITH NO
       SIGNIFICANT WEATHER OR OBSTRUCTIONS TO VISION.

      THIS PRODUCT IS RELEASED AS TWO VERSIONS.  ONE VERSION NEAR
      THE TOP OF THE HOUR CONTAINING PRELIMINARY DATA FROM ALBUQUERQUE
      AND OTHER STATIONS.  A FINAL VERSION WITH ADDITIONAL DATA IS 
      ISSUED ABOUT 10 MINUTES AFTER THE HOUR.
 
NMZ501-503-504-510>518-221200-
NORTHWEST PLATEAU/NORTHCENTRAL MOUNTAINS
  
CITY           SKY/WX    TMP DP  RH WIND       PRES   REMARKS
FARMINGTON     FAIR      76  44  32 E18       30.24R                  
LOS ALAMOS       N/A     65  45  47 SW8       30.43S                  
SANTA FE       FAIR      68  47  46 SE17      30.36R                  
ANGEL FIRE       N/A     53  47  81 CALM      30.57R                  

$$
NMZ402-403-502-505>509-221200-
WESTCENTRAL MOUNTAINS/SOUTHWEST MOUNTAINS
  
CITY           SKY/WX    TMP DP  RH WIND       PRES   REMARKS
GALLUP         FAIR      60  34  37 CALM      30.28S                  
GRANTS         FAIR      66  46  48 S12       30.33S                  
SILVER CITY    FAIR      75  49  39 E8        30.20R                  

$$
NMZ407-409-411-412-221200-
SOUTHERN DESERTS
  
CITY           SKY/WX    TMP DP  RH WIND       PRES   REMARKS
DEMING         FAIR      80  49  33 E10       30.11S                  
LAS CRUCES     FAIR      78  53  41 SE7       30.14S                  
ALAMOGORDO     FAIR      81  46  30 CALM      30.13R                  
T OR C         FAIR      77  53  43 N10       30.18R                  

$$
NMZ519>523-221200-
CENTRAL VALLEYS/CENTRAL HIGHLANDS
  
CITY           SKY/WX    TMP DP  RH WIND       PRES   REMARKS
ALBUQUERQUE    MOCLDY    73  51  46 E24G38    30.25S                  
DOUBLE EAGLE   FAIR      67  49  52 SW7       30.31R                  
MORIARTY ARPT  FAIR      65  52  62 NE9       30.38S                  
CLINES CORNERS FAIR      59  49  69 NE16G25   30.43R                  
BELEN          FAIR      69  48  46 NE6       30.25S                  
SOCORRO        FAIR      73  53  50 NE14G20   30.23R                  

$$
NMZ524>526-539-540-221200-
SOUTHCENTRAL MOUNTAINS
  
CITY           SKY/WX    TMP DP  RH WIND       PRES   REMARKS
RUIDOSO          N/A     61  54  77 NW3       30.39R                  

$$
NMZ527>531-221200-
NORTHEAST HIGHLANDS/NORTHEAST PLAINS
  
CITY           SKY/WX    TMP DP  RH WIND       PRES   REMARKS
LAS VEGAS      MOCLDY    57  53  86 N10       30.47R                  
RATON          MOCLDY    59  52  77 S5        30.44R                  
CLAYTON        LGT RAIN  63  62  97 NE10      30.36R                  

$$
NMZ532>537-221200-
EASTCENTRAL PLAINS
  
CITY           SKY/WX    TMP DP  RH WIND       PRES   REMARKS
SANTA ROSA     LGT RAIN  68  67  98 N22G28    30.29S                  
TUCUMCARI      CLOUDY    67  63  87 N17       30.26R                  
CANNON AFB     FAIR      68  64  86 N24G33    30.24R                  
CLOVIS AIRPORT FAIR      70  65  84 N23G31    30.25R                  

$$
NMZ028-029-538-221200-
SOUTHEAST PLAINS
  
CITY           SKY/WX    TMP DP  RH WIND       PRES   REMARKS
ROSWELL        FAIR      74  63  68 NW12      30.17R                  
ARTESIA        FAIR      72  68  88 NW7       30.18R                  
CARLSBAD       FAIR      75  61  61 NW9       30.11R                  
HOBBS          MOCLDY    73  59  60 N12       30.13R                  


$$